COSMOS 1275 DEB, 42189

Orbit data source: Space-Track

COSMOS 1275 DEB, 42189 is space debris in LEO originally from a launch on Thu, 04 Jun 1981 UTC launched from the Plesetsk Missile And Space Complex (PKMTR). Debris objects in space refer to the collection of defunct objects orbiting the Earth. Examples of debris include non-operational satellites, rocket bodies, and fragments generated from explosions, collisions, or faulty payload assembly.

Loading next visibility...
Identifier
42189, 1981-053TD
Orbit
LEO
Country
Flag of CISCIS
Related business
Manufacturer
Unknown
Mission
Spacecraft
Bus & Motor
Unknown
Mass
Unknown
Launch date (UTC)
1981-06-04 (44 years ago)
Launch vehicle
Unknown
Launch site
Plesetsk Missile And Space Complex (PKMTR)
Object type
Payload
Rocket body
Debris
Shape & HBR
Unknown shape, 0.1 m
Radar Cross Section
Small (<0.1 m²)

Expand to show TLE details & history
Last TLE update: 1 week ago

TLE from 1 week ago
0 COSMOS 1275 DEB
1 42189U 81053TD  25289.25853661  .00001159  00000-0  12033-2 0  9990
2 42189  83.0156 110.4719 0122483   2.9169 357.2672 13.71633406575530
Epoch: 2025-10-16T06:12Z
TLE epoch observation values (Epoch: 2025-10-16T06:12:17.563Z)
Latitude
0.00006°
Longitude
-7.62211°
Altitude
906.405 km
Speed
7.444 km/s
True Right ascension
07h 21m 53s
True Declination
0° 00' 00"
Sunlit
Object was in daylight at epoch
Visualization orbit readout
Latitude
Unknown
Longitude
Unknown
Altitude
Unknown
Speed
Unknown
Apparent Right ascension
Unknown
Apparent Declination
Unknown
Sunlit
N/A
Visualization observer readout
Local Sidereal Time
00:27:16
Azimuth
Unknown
Elevation
Unknown
Doppler factor
Unknown
Orbital elements
Apogee altitude
1,081.12 km
Perigee altitude
900.605 km
Semi-major axis
7,369 km
Eccentricity
0.01225
Inclination
83.0156°
RAAN
110.4719°
Arg. of periapsis
2.9169°
True anomaly
357.19924°
Mean anomaly
357.2672°
Eccentric anomaly
357.23333°
Mean motion
3.43108 °/min
Orbital period
104.92 mins
BSTAR
0.0012033
Loading maneuver chart data...
Computing Atmospheric mass density...

Documentation

Showing up to 5 results
|